Showing default

AAC-IO1, 68498

Orbit data source: Space-Track

AAC-IO1, 68498 is a UK payload satellite in SSO that was launched on Mon, 30 Mar 2026 UTC via an FALCON 9 launch vehicle from the Air Force Western Test Range (AFWTR). Payload-class satellites include a variety of spacecraft equipped with specific instruments for various scientific and technological missions. These include communications satellites like Starlink; space stations such as the ISS; scientific satellites like the Hubble; Earth observation satellites from companies like Planet Labs, Umbra, and HawkEye 360; GPS; miniature CubeSats for education and research; and military/defense satellites.

Loading next visibility...
Identifier
68498, 2026-067CL
Orbit
SSO
Country
Flag of UKUK
Related business
None
Manufacturer
AAC ClydeSpace
Mission
Operational spacecraft
Bus & Motor
CUBESAT 4U, Unknown motor
Mass
~8 kg wet, ~8 kg dry
Launch date (UTC)
2026-03-30 (3 months ago)
Launch vehicle
FALCON 9
Launch site
Air Force Western Test Range (AFWTR)
Object type
Payload
Rocket body
Debris
Shape & HBR
Unknown shape, 14.5 m
Radar Cross Section
Medium (>0.1 m² and <1 m²)

Expand to show TLE details & history
Last TLE update: 1 day ago

TLE from 1 day ago
0 AAC-IO1
1 68498U 26067CL  26171.35675502  .00001725  00000-0  17770-3 0  9996
2 68498  97.7550 129.4627 0004079  67.2453 292.9196 14.91531338 12197
Epoch: 2026-06-20T08:33Z
TLE epoch observation values (Epoch: 2026-06-20T08:33:43.633Z)
Latitude
-0.00007°
Longitude
92.45836°
Altitude
595.095 km
Speed
7.563 km/s
True Right ascension
08h 37m 51s
True Declination
0° 00' 00"
Sunlit
Object was in daylight at epoch
Visualization orbit readout
Latitude
Unknown
Longitude
Unknown
Altitude
Unknown
Speed
Unknown
Apparent Right ascension
Unknown
Apparent Declination
Unknown
Sunlit
N/A
Visualization observer readout
Local Sidereal Time
07:26:58
Azimuth
Unknown
Elevation
Unknown
Doppler factor
Unknown
Orbital elements
Apogee altitude
593.021 km
Perigee altitude
587.337 km
Semi-major axis
6,968.316 km
Eccentricity
0.00041
Inclination
97.755°
RAAN
129.4627°
Arg. of periapsis
67.2453°
True anomaly
292.87654°
Mean anomaly
292.9196°
Eccentric anomaly
292.89807°
Mean motion
3.73122 °/min
Orbital period
96.48 mins
BSTAR
0.0001777
Loading maneuver chart data...
Computing Atmospheric mass density...
Loading historical data...
Loading historical data...
Loading historical data...
Loading historical data...
Loading historical data...
Loading historical data...
Loading historical data...

Documentation

Showing up to 5 results
|